Tracking 32407 objects as of 6-Dec-2025
HD Live streaming from Space Station
objects crossing your sky now

COSMOS 1375 DEB

Track COSMOS 1375 DEB now!
10-day predictions


NORAD ID: 16210
Int'l Code: 1982-055M
Perigee: 969.2 km
Apogee: 1,011.5 km
Inclination: 65.8 °
Period: 104.8 minutes
Semi major axis: 7361 km
RCS: 0.1231 m2 (medium)
Launch date: June 6, 1982
Source: Commonwealth of Independent States (former USSR) (CIS)
Launch site: PLESETSK MISSILE AND SPACE COMPLEX (PKMTR)

Note: This is SATELLITE DEBRIS
Your satellite tracking list
Your tracking list is empty




NASA's NSSDC Master Catalog

Two Line Element Set (TLE):
1 16210U 82055M   25338.98690219  .00000006  00000-0  91206-4 0  9993
2 16210  65.8325 199.3756 0028721 198.7874 276.0959 13.74572673 13226
Source of the keplerian elements: AFSPC